RH
62 50 39 34 25 20 21 23 24 24 26 27 30 36 37 35 34 31 29 28 26 26 25 27 28 29 34 33 34 38 37 34 40 60 48 13 7 7 8 7 7 26 27 23 32 32 34 32 32 37 38 41 41 46 52 60 68 70 76 80 76 74 74 73 73 70 70 76 71 74 75 63 65 66 58 55 57 59 57 58 57 56 57 58 66 71 78 83
49 43 38 33 26 22 19 20 22 23 24 25 26 28 29 31 31 29 28 26 24 23 24 26 22 24 31 33 39 40 42 50 62 72 45 15 19 13 7 9 11 23 28 30 32 28 30 26 27 34 37 41 43 48 54 65 71 70 77 79 74 73 75 77 77 75 73 71 69 75 73 64 65 63 57 59 64 61 61 63 61 64 66 65 71 75 79 81
41 39 37 34 30 23 18 17 20 22 24 25 26 27 28 29 28 26 26 25 25 24 25 25 20 21 24 34 45 42 54 65 54 47 32 25 30 18 11 12 15 24 28 27 24 22 22 21 28 33 39 43 45 53 60 69 73 70 75 77 73 74 75 77 79 83 82 72 70 75 70 66 66 61 59 63 63 58 60 62 62 69 70 67 70 73 77 78
39 38 36 35 32 24 19 16 17 20 22 24 24 25 26 28 28 25 24 24 25 25 26 25 21 23 25 36 46 50 65 55 28 24 23 22 26 23 14 12 22 29 27 23 21 20 18 24 30 32 43 48 44 52 61 68 71 71 74 74 73 77 78 80 83 88 85 72 71 73 68 69 68 62 61 61 61 59 58 55 58 65 67 67 67 70 74 74
38 37 34 34 34 28 22 17 16 17 19 22 22 23 24 25 26 25 24 23 23 25 27 25 23 27 33 41 50 59 57 31 15 19 19 17 20 20 12 14 29 28 24 25 23 22 22 27 31 34 46 52 48 51 58 63 68 70 73 72 74 79 81 85 86 87 86 76 72 70 69 70 65 61 60 57 59 58 54 53 56 59 62 65 66 68 71 71
38 34 32 32 33 29 24 20 17 15 17 19 20 22 22 23 24 25 26 23 23 24 26 25 23 28 35 45 57 57 34 13 13 18 22 21 15 14 12 18 28 22 21 26 25 23 25 29 34 40 47 51 52 52 58 66 68 67 70 74 76 80 84 88 86 87 87 81 76 74 72 67 59 60 58 56 58 52 49 53 56 60 62 64 66 67 68 68
39 34 31 30 28 26 23 22 18 16 17 18 19 20 20 22 22 24 26 25 24 23 27 26 23 27 33 46 57 45 20 12 20 24 26 19 10 15 17 21 24 18 17 22 24 22 24 30 35 40 44 50 49 45 52 64 69 67 70 78 80 82 87 88 86 87 86 85 83 77 71 64 60 62 60 57 55 49 49 54 58 62 64 65 66 65 66 67
41 36 33 29 25 24 22 21 19 18 19 18 19 18 18 20 19 22 24 26 26 24 28 27 25 29 35 48 45 26 18 20 27 30 23 13 11 18 21 23 23 19 16 18 22 22 23 28 31 36 42 48 42 38 49 61 70 73 73 79 83 84 86 87 85 84 83 87 86 75 72 71 66 64 61 56 52 48 52 56 60 63 64 65 65 65 66 67
41 37 34 30 25 24 22 21 20 19 20 19 18 17 17 17 18 21 22 25 27 26 29 28 29 31 42 55 36 17 22 24 27 28 19 13 14 19 21 23 24 20 16 16 20 22 22 24 28 31 36 42 33 30 45 54 61 73 75 78 86 87 87 87 83 80 82 88 83 73 75 76 69 67 60 53 50 51 56 59 61 64 64 64 64 65 65 65
38 36 33 29 25 22 21 20 20 20 19 17 16 16 15 15 17 19 22 25 27 29 30 30 34 38 50 55 30 16 24 22 21 24 20 14 14 18 20 21 22 19 15 14 17 20 21 22 23 24 28 31 26 30 46 52 58 72 77 79 86 87 86 86 83 82 81 85 84 75 76 74 66 65 59 52 50 53 58 61 62 64 64 63 64 66 66 66
37 36 32 28 24 21 20 19 20 20 17 16 15 14 14 15 17 19 22 25 29 32 32 34 38 48 58 50 25 14 18 19 18 23 23 15 13 17 18 19 19 16 15 14 14 16 19 20 19 23 30 26 32 53 63 61 65 73 75 80 85 84 85 85 84 84 80 86 86 74 73 73 65 60 56 52 51 54 59 63 64 64 65 63 64 66 67 67
36 35 31 28 24 20 20 20 20 18 16 15 14 15 15 16 17 19 23 27 32 34 37 41 42 52 62 49 30 17 16 21 18 23 27 19 16 18 19 22 20 17 17 15 14 14 15 18 16 22 28 25 41 68 73 67 67 71 74 80 85 84 85 87 85 83 81 87 86 74 73 75 68 62 56 52 51 54 59 63 64 64 65 64 64 66 66 67
36 34 31 28 23 20 20 20 20 18 17 16 16 17 16 16 19 20 25 30 36 40 44 48 49 58 58 38 25 18 17 20 18 24 30 25 23 23 25 28 24 20 18 14 14 12 11 14 14 18 19 17 38 62 69 71 70 75 77 76 84 85 84 89 88 84 84 87 87 84 84 76 67 63 56 52 52 55 60 63 63 63 64 64 65 66 66 67
35 33 31 27 23 20 19 20 21 19 19 18 18 17 16 19 22 24 30 35 40 46 51 55 60 68 59 32 19 17 18 20 20 24 27 27 27 28 29 28 27 24 19 14 13 12 12 12 11 14 14 17 42 64 70 74 74 82 83 77 82 81 83 92 89 87 89 88 87 91 92 75 62 61 56 52 52 55 60 63 62 63 63 63 64 64 64 65
34 32 29 26 23 20 18 20 21 21 21 20 18 17 20 26 28 31 36 41 46 47 54 64 67 69 54 31 21 18 20 21 20 20 22 24 24 27 30 27 29 28 24 20 16 13 13 12 10 12 19 29 51 65 67 73 74 78 83 81 82 77 81 88 86 89 91 88 87 90 91 75 60 60 58 52 52 54 59 62 61 62 61 61 62 61 60 60
32 31 29 25 23 19 18 20 20 22 22 19 18 21 31 38 39 41 44 50 53 49 60 72 73 66 42 22 21 21 21 21 18 18 21 23 21 24 28 27 28 28 25 22 18 16 12 12 13 15 26 40 54 58 59 70 76 76 78 77 79 77 79 84 87 92 90 87 89 89 90 80 64 61 57 51 51 53 58 61 61 61 60 59 59 58 56 56
31 29 27 25 22 19 18 18 20 22 21 18 22 32 45 51 52 54 55 57 55 53 64 77 80 66 34 17 21 22 20 19 18 19 21 25 24 21 23 21 22 23 21 16 14 15 11 13 18 21 30 43 55 58 55 64 73 77 78 76 80 79 77 83 90 92 88 88 90 89 90 84 69 61 57 53 51 54 57 59 60 60 59 58 56 54 54 55
30 28 27 24 21 19 17 17 20 22 19 19 28 42 52 59 64 65 65 62 58 57 61 71 71 49 24 17 20 20 19 20 20 20 23 28 24 18 17 14 16 18 15 12 11 11 11 14 18 22 33 49 61 59 52 58 64 69 74 75 80 79 78 83 88 91 90 89 90 90 91 86 73 63 57 54 52 54 55 55 57 57 57 57 54 52 51 52
30 28 26 24 21 18 16 17 21 21 19 22 34 48 55 61 67 68 74 72 57 42 37 47 48 29 20 20 19 20 21 22 20 18 25 30 23 17 15 12 13 14 12 12 12 13 14 17 23 24 31 49 61 56 50 55 58 60 65 66 71 75 78 82 84 88 88 88 92 92 89 85 77 67 59 55 53 54 55 54 55 56 56 55 53 50 51 51
31 28 26 24 20 17 16 17 20 20 19 25 34 44 45 45 45 47 60 65 50 34 24 29 34 26 23 23 22 23 19 19 18 16 23 28 23 18 15 13 14 14 14 14 14 15 16 23 31 28 25 36 50 56 53 54 57 59 58 58 64 70 77 84 86 87 86 88 94 91 86 83 76 69 60 55 55 55 56 56 56 56 55 55 52 50 50 50
31 28 25 22 18 17 16 17 19 18 21 26 30 33 29 28 30 28 32 37 39 42 34 29 33 29 25 25 25 24 20 19 16 15 20 22 21 18 15 15 16 15 17 18 18 17 20 29 31 23 20 25 37 55 62 61 60 58 55 53 58 67 77 88 90 88 86 88 92 90 87 85 76 68 60 57 58 56 55 56 56 55 55 54 53 52 51 48
31 28 24 21 18 16 15 16 16 18 23 25 23 25 23 23 28 26 25 26 29 39 41 35 35 32 28 28 28 25 23 20 15 15 18 19 18 17 16 17 17 18 18 21 22 21 25 30 25 20 21 21 26 42 56 64 62 59 59 51 51 66 76 83 91 90 86 89 91 88 91 92 82 70 63 59 58 55 53 53 54 54 55 54 52 52 51 48
32 28 24 20 16 15 16 15 17 23 26 24 22 23 23 23 26 26 25 28 27 31 37 35 32 31 29 28 28 26 23 21 17 15 17 16 15 16 16 17 19 18 18 19 21 25 29 25 20 20 22 21 21 25 34 43 45 49 53 44 48 71 71 69 87 91 85 89 90 87 92 96 89 78 68 63 60 60 59 55 53 52 54 54 50 49 49 48
32 27 24 19 15 17 17 14 21 26 23 22 22 24 23 21 27 29 25 30 33 30 28 28 27 28 27 23 25 25 20 20 17 14 16 15 14 16 15 17 19 17 18 19 18 23 24 19 19 21 22 22 20 21 22 23 27 38 47 40 44 66 68 67 85 91 88 90 85 85 93 96 93 83 70 65 65 65 62 57 55 54 53 52 49 47 46 46
31 27 23 17 14 17 17 18 25 23 21 23 23 24 23 18 24 29 28 32 32 26 23 24 25 25 23 22 25 23 17 17 15 14 16 14 13 15 15 16 17 16 18 20 18 19 19 17 18 20 21 21 20 20 19 19 22 30 43 44 40 53 69 79 86 88 94 96 85 84 94 96 93 86 70 63 66 65 63 60 56 54 54 53 51 48 45 44
30 27 21 16 15 15 19 28 30 21 20 24 22 23 19 16 24 28 30 32 22 16 17 16 18 18 17 20 21 19 17 16 15 16 16 14 13 14 14 15 16 17 18 18 18 18 18 17 18 18 19 19 20 19 18 21 20 22 41 54 51 58 74 82 83 86 96 98 88 86 94 96 94 91 75 62 63 63 62 62 56 54 54 52 50 48 45 43
30 26 20 16 14 16 23 30 29 21 19 21 22 21 15 17 26 27 30 30 19 15 15 12 15 14 13 16 16 16 18 19 17 17 17 15 15 14 14 16 16 15 16 16 17 17 16 16 18 19 18 18 19 18 18 18 16 29 54 65 63 68 76 79 78 85 92 93 91 90 92 94 94 93 81 66 64 63 61 62 59 57 54 50 48 46 44 43
30 25 18 16 16 19 24 24 23 21 18 19 21 16 14 23 29 28 31 28 19 15 13 12 13 12 12 14 14 14 17 19 18 17 17 16 15 14 14 15 14 14 16 15 15 17 16 15 17 16 17 18 16 16 18 19 32 54 67 66 66 70 74 77 78 83 87 89 95 96 93 94 93 93 88 74 69 67 64 61 60 60 55 49 47 44 42 42
29 25 17 15 16 19 22 22 22 20 18 20 18 14 20 28 28 29 32 27 19 15 12 12 12 12 13 12 13 14 14 17 19 17 16 15 14 14 15 16 15 16 18 16 14 16 16 15 15 13 16 16 12 16 15 19 46 66 64 62 68 69 69 75 78 80 85 85 86 88 90 93 92 93 95 86 77 71 66 62 58 59 56 49 46 43 40 42
27 24 16 14 18 21 23 24 18 17 21 19 14 18 27 29 28 31 31 23 19 16 12 12 12 13 13 12 14 15 14 17 19 17 15 15 15 13 15 17 16 17 19 18 16 16 16 18 19 14 14 15 19 26 20 25 50 58 57 63 66 68 71 75 76 77 83 83 75 76 83 89 89 89 91 86 79 72 65 62 58 57 57 50 45 43 40 41
24 20 15 13 18 21 23 23 18 18 21 15 15 23 28 31 31 31 28 21 18 16 12 11 13 14 14 14 15 15 16 19 20 19 16 16 16 14 16 16 16 18 18 18 18 16 15 18 19 14 16 22 32 40 35 39 53 51 51 54 55 68 73 71 76 76 77 79 77 78 82 87 90 86 83 76 72 71 65 61 60 58 56 50 44 41 40 41
21 16 12 12 15 18 19 20 20 20 16 13 20 27 29 32 29 26 26 22 18 15 13 13 14 15 16 16 15 16 18 19 20 20 18 18 17 16 18 18 18 19 20 20 17 16 15 14 15 16 22 28 33 45 53 53 51 46 46 43 46 65 65 62 77 78 73 76 80 82 84 90 87 74 72 70 68 73 70 62 58 57 54 49 45 42 41 43
17 12 11 12 13 15 16 17 18 16 13 17 26 30 32 31 24 26 29 22 18 17 15 15 15 16 17 15 16 19 20 20 20 21 20 18 17 17 18 18 18 16 19 21 17 16 15 14 20 24 26 29 26 37 57 61 54 46 42 36 38 53 56 62 79 79 72 74 76 80 86 89 80 67 66 63 59 66 72 66 57 53 53 49 44 42 43 47
14 10 11 14 14 14 15 17 17 15 16 21 27 28 30 30 26 31 33 25 22 20 15 15 16 17 18 16 18 20 19 20 21 22 22 18 16 19 19 18 18 14 16 19 16 18 18 18 27 27 28 32 26 28 41 48 52 46 37 33 34 38 42 53 67 68 69 74 78 85 86 80 75 74 71 61 54 56 64 68 59 53 55 49 43 44 45 48
15 12 14 15 14 14 14 15 17 18 19 23 29 31 30 31 29 30 29 23 22 22 18 16 18 18 18 18 20 20 18 19 22 23 23 22 19 21 20 17 18 15 14 18 19 21 21 20 20 20 30 37 30 33 40 41 50 50 40 39 38 31 33 47 59 64 69 72 77 83 81 71 66 69 71 66 59 55 59 64 59 55 57 50 45 47 45 46
19 18 18 18 18 17 14 12 14 17 21 25 29 30 29 29 27 25 27 23 19 22 21 16 15 17 17 18 20 20 18 19 23 22 23 26 24 22 22 19 18 16 13 18 24 24 23 22 16 17 34 40 32 39 45 38 43 51 46 43 40 34 38 53 64 70 71 68 70 75 75 70 62 61 72 71 63 60 62 63 59 58 58 52 47 48 46 45
25 25 24 25 24 21 15 11 13 19 26 29 29 29 30 27 21 24 32 28 20 20 20 16 16 16 17 18 18 18 18 19 23 23 22 26 24 21 23 20 17 16 13 15 21 22 20 21 18 20 36 46 39 39 44 39 38 45 46 42 41 41 41 49 62 71 71 65 65 70 73 74 66 64 76 76 68 69 68 64 64 63 61 54 47 46 45 44
28 27 24 27 28 24 18 12 15 26 31 33 36 38 37 29 21 24 28 25 20 18 16 16 17 16 17 18 17 17 18 18 22 25 25 26 23 21 22 20 16 17 16 15 18 20 21 21 19 21 36 50 45 39 46 46 37 38 41 37 43 55 58 62 67 67 64 59 59 66 72 74 68 64 71 72 70 75 72 68 69 69 66 57 48 49 48 46
30 25 22 29 30 23 19 16 23 34 33 31 37 37 33 29 26 26 26 22 19 16 14 15 17 18 18 18 16 18 19 18 22 28 29 26 24 22 22 19 17 17 18 17 17 19 22 24 21 20 31 44 47 46 51 52 41 38 42 39 42 56 67 75 71 56 52 54 55 60 63 64 66 67 70 70 67 70 74 72 70 72 70 62 56 58 55 50
37 27 22 30 29 21 22 24 31 39 35 30 33 32 28 25 23 24 25 23 17 13 13 15 16 17 18 18 16 18 22 23 23 27 29 27 24 21 19 19 17 16 18 18 18 21 24 26 25 25 32 44 53 51 47 48 46 41 44 46 43 45 54 67 69 54 47 51 53 55 53 54 64 72 75 74 68 65 69 69 68 70 70 66 63 64 61 55
43 26 23 28 26 24 26 28 33 39 36 32 32 30 27 25 23 23 23 22 18 13 11 14 17 17 18 18 16 17 23 25 24 26 26 24 22 19 16 19 18 16 18 18 18 21 25 26 27 26 30 38 43 37 28 32 41 41 44 46 43 44 50 60 64 51 41 46 51 51 50 55 68 75 76 75 70 63 63 65 66 66 69 69 66 65 65 60
36 22 26 30 27 27 27 31 39 41 33 29 29 26 27 28 27 23 18 16 15 13 12 15 17 18 18 17 16 20 23 23 23 24 23 22 22 18 16 20 20 17 17 17 20 27 30 31 31 26 25 26 27 28 24 24 33 39 39 40 40 43 51 57 58 50 42 43 46 47 48 57 71 77 76 75 71 63 60 63 66 65 66 68 66 66 66 61
38 30 30 31 30 30 28 32 41 39 30 29 29 25 24 25 24 20 16 13 12 11 12 14 15 17 18 17 17 20 22 22 21 21 23 24 21 19 19 19 18 18 17 17 21 30 36 38 37 32 31 26 23 27 28 26 30 32 32 39 39 36 42 46 46 48 45 41 45 50 49 56 71 78 76 73 70 64 61 63 65 65 65 65 65 68 68 65
57 48 39 36 31 29 29 30 32 32 32 34 32 27 25 24 22 20 16 14 14 12 12 14 14 15 17 19 21 22 21 21 20 19 22 24 22 21 20 21 25 24 20 21 21 23 34 44 41 34 32 29 26 28 34 39 39 32 36 50 53 46 44 43 41 45 44 42 48 50 46 56 73 77 74 71 69 68 65 63 63 63 64 62 61 65 70 70
57 45 42 41 34 30 30 30 28 31 37 40 37 33 30 25 21 20 16 15 15 12 12 14 13 15 19 21 23 25 24 21 20 22 22 20 20 21 18 22 31 31 31 38 34 25 36 51 47 37 33 34 41 48 55 63 59 47 50 62 66 62 55 46 41 41 43 47 52 49 49 62 75 77 78 74 70 72 70 66 65 64 63 60 58 64 70 72
49 39 44 46 39 35 37 40 40 38 40 43 40 36 32 25 21 18 15 12 11 12 14 14 14 16 18 21 24 25 25 22 22 26 26 20 19 19 19 20 25 35 48 53 44 36 45 54 55 54 51 51 63 71 69 71 73 70 69 67 67 70 66 53 38 36 43 45 46 56 67 74 80 85 88 81 73 73 72 69 70 72 69 64 60 64 70 73
53 49 58 58 47 40 43 49 50 48 45 42 40 37 32 26 23 18 12 9 10 15 17 17 17 16 16 23 25 23 26 27 23 23 25 25 23 19 20 19 18 34 50 45 35 38 47 51 56 67 70 66 71 73 65 64 72 78 78 73 71 71 64 50 38 44 50 37 38 68 83 83 89 94 94 91 83 77 75 72 74 79 78 71 67 68 72 74
57 57 63 65 57 48 45 48 55 58 52 45 45 40 30 26 26 20 13 11 11 13 16 18 19 17 19 24 23 25 33 30 23 25 26 26 27 20 17 17 16 26 34 27 28 39 42 42 49 66 76 70 67 70 65 62 65 64 64 70 76 73 60 51 55 65 59 39 47 78 88 87 96 96 93 96 92 86 82 77 79 84 84 80 75 74 76 78
60 60 62 67 65 59 54 57 65 63 53 51 53 42 30 28 28 22 15 13 14 15 17 20 20 18 22 30 33 37 43 32 21 29 32 25 25 23 19 17 16 19 20 20 31 41 41 43 49 61 73 74 73 76 71 66 64 58 55 61 74 81 70 62 70 73 64 58 68 82 88 93 95 92 93 94 89 87 85 79 81 86 87 88 87 84 85 86
65 64 68 70 66 65 66 68 68 58 50 52 50 40 33 30 28 28 24 17 15 16 17 19 20 19 23 34 36 30 34 33 23 24 30 26 23 26 24 19 16 17 18 22 30 34 39 49 52 55 66 72 74 75 72 68 65 61 60 61 71 84 78 68 70 72 70 76 82 82 89 98 92 88 91 89 83 84 85 84 88 90 90 92 94 93 94 94
84 82 86 82 68 66 69 67 64 55 45 44 41 39 39 33 30 35 31 20 15 15 16 16 18 20 22 27 27 18 22 32 24 16 23 22 16 19 22 19 18 19 20 25 29 29 35 46 48 50 58 64 68 73 72 64 62 67 72 68 73 87 87 75 74 76 76 80 84 84 90 98 94 88 89 88 86 88 91 92 91 90 91 94 96 97 97 97
95 87 91 88 70 64 68 67 62 50 41 43 47 46 45 40 35 34 33 26 17 12 15 17 17 20 21 21 20 14 16 24 19 14 19 18 13 15 19 19 19 22 24 27 30 36 38 40 44 49 53 55 61 69 66 53 53 71 80 72 72 84 87 80 80 83 81 79 85 90 93 95 93 91 93 93 91 93 97 96 92 91 93 94 96 97 97 97
Wind_Speed
10 11 11 12 12 12 12 11 11 11 11 11 11 10 10 10 10 10 9 9 9 9 10 10 11 10 10 11 12 14 15 16 14 10 6 7 6 5 6 5 11 14 15 18 18 15 9 7 8 7 7 4 1 2 3 2 0 1 0 1 2 1 1 1 3 2 4 6 8 5 4 9 11 7 7 8 9 9 8 7 8 9 9 12 17 21 21 19
10 11 11 12 12 12 12 12 12 11 11 11 11 11 11 10 10 10 10 10 9 8 9 9 10 11 11 11 13 14 16 15 12 9 6 5 4 4 5 6 12 16 18 19 19 16 11 9 9 8 6 3 1 2 3 2 1 1 0 1 2 1 1 2 2 1 2 6 10 6 4 7 10 10 8 8 10 10 9 9 9 12 13 15 20 21 19 19
11 11 12 12 12 13 12 12 12 11 10 10 10 10 10 10 10 9 9 9 9 9 8 8 9 10 11 11 13 14 15 12 6 3 4 9 5 6 8 12 14 17 19 19 18 16 13 12 11 8 4 2 2 2 2 2 1 1 1 3 2 2 3 3 3 1 1 5 10 7 5 6 7 7 6 8 12 10 9 10 10 12 14 16 18 19 19 18
11 12 12 12 13 13 13 12 11 10 10 9 9 9 9 10 9 9 9 9 9 9 9 8 8 9 10 11 12 14 11 5 0 2 7 13 7 7 13 15 16 16 16 16 15 13 13 14 11 6 3 2 2 2 2 2 2 1 2 3 2 2 4 3 1 1 2 4 9 8 8 7 5 4 6 12 11 7 8 10 11 14 17 18 17 19 19 17
12 12 12 12 13 13 13 13 12 10 10 9 9 9 9 9 9 9 9 8 9 9 9 9 9 8 9 11 12 12 7 1 2 6 11 14 4 12 15 17 18 15 14 14 12 11 13 13 9 5 3 3 3 2 2 3 3 2 2 3 3 3 3 2 1 2 3 3 7 8 9 7 5 4 8 12 6 4 7 8 11 15 17 18 18 18 17 16
12 13 13 13 14 14 13 13 12 11 10 10 10 9 9 9 10 10 9 10 9 9 8 9 9 8 9 10 10 8 4 0 3 10 13 10 4 15 16 19 20 16 15 15 12 11 12 9 8 5 3 3 3 3 1 3 5 3 2 2 2 3 4 2 1 2 3 3 5 6 5 5 7 7 7 6 2 4 8 8 11 13 16 18 17 17 16 15
13 14 14 14 14 14 14 14 12 11 11 11 10 10 10 10 10 10 10 10 10 10 8 8 9 8 9 10 7 3 1 2 6 10 9 4 11 16 17 19 19 15 15 14 11 8 9 9 7 5 4 3 2 3 2 3 6 5 3 1 2 3 3 1 1 2 3 4 4 4 4 5 7 7 6 4 4 7 10 11 13 15 17 18 15 15 14 14
14 14 15 15 15 15 15 14 13 12 11 11 11 10 10 10 10 9 9 10 10 10 8 8 8 7 8 8 4 1 1 3 7 7 5 9 14 17 18 17 16 15 13 13 10 7 8 8 7 5 4 3 1 1 2 3 5 7 4 1 2 3 1 2 2 3 5 4 3 5 5 4 3 5 7 6 6 9 12 13 14 16 16 15 14 14 13 13
14 15 15 16 15 15 14 14 13 12 11 10 10 11 10 10 10 10 9 10 9 9 8 7 6 6 7 5 2 0 1 3 7 8 7 10 14 17 16 13 14 15 12 11 11 8 6 5 5 4 2 3 1 2 2 3 3 4 3 1 1 2 2 4 4 3 4 3 3 5 7 4 3 3 7 7 8 12 13 14 15 15 15 14 12 13 13 12
14 14 15 15 15 15 14 13 13 12 11 10 10 10 10 10 10 9 9 9 9 8 7 6 4 4 5 4 2 1 2 3 9 10 7 9 12 16 13 11 15 14 11 9 9 9 5 3 4 1 1 2 0 4 2 3 1 4 4 3 1 2 1 3 4 3 4 3 2 5 6 4 2 2 5 7 11 14 14 15 15 14 14 14 12 11 12 11
15 15 15 15 15 15 14 13 13 12 10 10 9 9 10 10 10 9 9 8 7 6 5 4 2 2 3 3 1 1 2 1 7 9 6 7 9 13 10 9 13 13 11 7 5 7 4 3 3 1 1 0 1 2 1 1 2 6 7 4 3 4 1 3 4 4 3 2 0 4 6 3 2 2 3 10 14 15 15 15 15 14 13 12 12 10 10 11
15 15 16 16 16 15 15 13 12 11 11 10 10 10 11 11 10 10 8 6 6 4 4 3 1 2 3 1 3 2 1 2 3 6 5 6 7 10 8 7 10 11 11 7 5 8 6 3 1 2 0 2 2 1 2 2 3 6 4 2 2 4 1 2 3 4 3 1 1 4 5 3 5 3 4 11 14 15 16 15 15 14 12 11 11 9 8 10
16 16 16 16 16 16 16 14 12 12 11 11 11 11 11 11 11 9 6 4 3 2 2 2 1 2 2 1 2 2 2 3 4 4 3 5 5 6 6 6 7 8 8 6 6 9 9 2 2 0 1 3 2 1 2 3 3 5 2 1 1 1 2 1 1 4 3 1 2 2 3 5 8 4 5 12 15 15 15 14 14 12 11 10 9 8 8 9
17 17 17 17 17 17 16 14 13 12 12 12 12 12 12 11 9 6 3 2 1 1 1 1 2 2 1 3 2 1 2 5 7 5 3 6 7 6 6 5 6 7 6 5 4 2 8 7 2 2 0 2 2 3 3 2 2 3 2 1 1 1 3 0 1 5 5 2 2 3 1 4 9 7 6 13 15 16 15 14 14 12 11 10 9 9 8 9
18 18 18 17 17 17 16 15 14 13 13 13 13 12 11 8 5 2 1 2 2 2 2 3 3 1 1 2 1 1 3 5 5 5 5 8 9 6 6 7 6 6 6 6 3 4 2 8 2 2 1 1 2 3 2 1 1 2 1 1 1 2 2 1 2 3 3 3 1 3 1 2 7 8 8 12 14 15 14 14 14 13 12 11 9 9 8 8
19 19 19 18 18 18 17 15 14 13 13 13 12 10 8 6 4 3 3 4 4 4 3 2 3 1 1 1 1 2 3 3 4 4 3 8 8 6 9 9 6 5 3 3 4 0 3 7 3 1 0 1 4 3 1 2 1 0 2 1 1 2 2 2 1 2 3 4 3 3 1 1 4 7 9 12 14 14 13 13 14 14 13 11 9 8 8 8
19 19 20 19 19 18 17 16 14 13 13 12 10 7 6 6 4 4 5 5 4 5 4 1 2 2 1 1 2 2 2 3 3 3 4 8 8 9 11 7 5 5 3 2 1 2 3 4 2 1 1 1 3 3 2 2 2 2 3 2 1 2 2 1 2 1 4 4 5 2 1 1 1 6 10 13 14 13 12 13 14 13 12 11 9 9 8 8
20 20 21 20 20 18 17 15 13 13 12 11 8 4 6 6 6 6 6 6 4 4 3 1 1 1 1 1 1 3 6 6 2 1 4 9 9 9 8 5 6 7 4 3 2 1 3 1 1 2 2 2 3 4 3 1 2 2 2 1 1 2 3 2 1 4 5 4 5 3 1 1 1 6 11 13 14 13 12 12 12 12 12 11 10 9 9 9
21 22 22 21 20 18 17 15 13 13 11 9 7 4 5 5 5 5 5 5 2 1 0 0 1 1 1 1 2 6 8 5 2 1 7 11 10 8 8 7 7 5 3 2 2 2 3 3 2 4 4 4 4 6 3 3 4 1 1 0 0 1 2 1 1 3 6 4 4 4 2 1 3 7 11 12 13 12 11 11 10 11 11 11 10 9 9 10
22 23 23 22 20 18 17 15 13 12 9 7 5 2 3 3 1 2 1 3 2 2 2 1 3 3 4 2 3 6 5 1 1 3 9 12 12 9 5 4 4 2 2 3 3 2 2 5 6 5 4 4 5 7 5 1 3 2 1 1 0 1 1 2 1 3 6 3 2 3 2 3 5 8 10 12 12 12 12 12 11 11 11 11 11 11 11 11
23 23 23 22 20 18 16 14 12 10 6 6 6 2 1 2 3 3 3 2 4 4 5 3 2 5 7 5 4 4 2 0 3 4 8 11 12 8 2 0 2 2 1 1 2 2 3 7 4 1 1 3 4 5 6 5 4 4 4 3 2 1 1 2 2 1 4 3 2 2 2 4 5 6 8 10 12 13 13 13 12 13 12 11 12 12 11 10
23 24 23 23 20 17 15 13 11 7 3 6 6 3 2 1 2 3 2 4 4 3 4 4 3 6 8 7 6 1 1 0 3 3 8 10 5 2 1 1 2 2 1 1 3 3 4 4 1 1 2 2 1 3 5 7 7 5 3 2 3 1 1 2 2 3 2 2 2 2 2 2 3 3 7 10 12 11 11 13 13 14 13 12 12 12 11 10
23 24 24 23 20 17 13 11 9 3 2 5 4 5 2 3 3 4 2 3 5 1 2 3 3 4 4 4 4 5 2 1 1 2 9 9 2 1 4 3 2 2 2 3 4 4 4 2 1 1 4 3 1 3 4 5 5 4 3 3 2 1 2 1 1 1 4 2 1 3 3 1 1 2 5 7 7 6 6 9 10 12 13 13 14 13 12 12
23 24 23 22 20 15 12 10 6 1 3 6 1 6 3 7 2 5 4 1 3 2 2 3 3 3 2 1 5 6 1 1 2 2 8 9 3 2 3 2 3 2 2 2 3 3 2 2 4 3 3 3 2 2 3 4 3 2 2 3 4 3 3 1 4 2 3 3 2 4 3 1 2 4 7 7 4 4 6 8 9 10 11 11 12 12 12 12
24 24 22 22 19 14 12 7 1 1 7 5 3 5 5 11 3 7 4 1 1 2 2 3 2 3 2 2 4 3 1 1 2 1 7 8 4 3 2 1 1 2 3 3 3 2 2 1 4 4 3 3 2 2 3 3 3 1 2 3 8 6 4 5 7 5 1 2 1 3 2 2 3 7 10 9 8 8 7 8 11 11 10 9 10 12 12 12
24 23 21 20 17 12 8 2 1 4 6 1 5 2 8 12 1 9 3 2 1 1 2 2 1 1 1 2 3 2 1 1 1 1 5 7 5 2 2 2 1 0 4 4 2 2 1 2 4 3 3 4 4 4 3 3 4 2 2 2 7 5 7 8 7 5 2 1 2 4 4 2 3 7 10 10 13 13 9 9 11 11 11 10 10 11 11 12
23 22 20 18 15 11 5 1 3 5 2 1 3 3 12 9 4 9 2 1 2 1 2 1 1 1 0 1 3 2 0 1 1 2 2 5 4 1 1 3 1 1 3 3 2 2 3 3 2 3 3 4 5 5 4 6 5 2 3 2 4 5 7 8 5 3 1 1 3 6 4 2 3 5 9 11 14 16 14 12 10 10 12 13 12 12 12 12
23 21 18 15 13 11 6 5 4 3 1 2 0 8 11 2 9 6 2 1 2 1 1 1 1 1 1 0 2 1 1 2 1 1 1 2 3 1 1 4 4 3 2 3 3 1 3 4 4 5 3 3 5 4 5 8 2 1 5 7 5 5 7 7 5 3 2 1 3 6 4 3 4 3 6 11 15 18 18 16 12 10 12 13 13 14 14 13
22 19 16 13 11 10 8 6 5 3 2 2 5 9 4 7 8 1 0 1 2 1 1 1 1 1 1 1 1 1 1 1 1 1 1 2 2 1 1 3 3 4 2 2 3 1 2 4 4 5 4 5 5 2 6 8 3 4 9 11 8 6 6 6 4 3 3 1 4 7 8 4 3 4 7 10 15 17 15 14 13 10 11 13 13 14 14 12
21 17 14 11 9 7 6 7 6 5 3 2 8 5 5 7 2 0 1 1 1 1 0 1 2 1 1 2 0 1 1 1 1 1 1 1 1 2 1 1 2 3 2 1 4 4 2 0 1 4 5 4 2 3 3 7 10 11 11 10 8 5 4 3 2 2 2 3 3 6 12 8 3 4 8 9 11 14 12 11 12 11 10 12 13 13 13 11
19 15 12 9 7 5 3 3 3 5 2 4 5 2 5 1 1 1 2 1 1 1 1 1 2 1 1 2 1 1 0 1 1 1 2 1 1 2 1 2 2 2 2 1 4 4 3 2 3 3 4 4 5 5 2 9 15 11 7 7 4 2 2 2 2 2 3 2 1 2 10 9 6 3 5 6 10 14 14 12 14 14 12 12 13 13 13 12
18 14 9 7 7 7 5 2 2 1 3 5 3 2 2 1 0 0 1 1 1 1 1 1 2 1 1 1 1 1 0 0 1 1 1 1 2 2 2 3 2 2 2 2 2 2 3 4 2 0 3 7 7 6 4 7 10 7 4 6 4 2 2 2 1 1 3 1 1 2 6 6 7 5 4 7 11 14 15 13 14 16 15 13 13 13 12 11
16 11 7 6 7 7 7 6 6 6 4 3 1 1 1 1 1 0 1 1 1 1 1 1 2 2 1 1 1 1 0 0 1 1 1 1 2 2 1 1 2 2 0 0 1 2 2 2 4 2 3 7 9 7 6 6 7 8 7 6 5 3 2 2 1 1 3 1 1 3 6 4 6 4 5 10 13 14 14 13 13 15 15 14 14 14 12 11
16 9 5 5 6 6 6 6 6 5 1 1 0 1 1 1 1 0 1 2 2 1 1 1 1 1 1 1 1 1 1 0 2 1 1 1 1 2 1 2 3 2 1 2 1 1 1 1 4 4 2 7 11 7 7 9 8 8 7 5 5 4 2 2 2 2 2 1 2 4 5 3 2 1 2 6 10 12 12 11 12 11 11 12 13 13 12 12
14 7 4 3 3 4 6 7 7 4 1 1 0 1 1 1 0 1 1 2 2 2 1 1 0 1 1 1 1 1 1 1 2 1 1 1 1 1 1 2 4 3 2 2 1 0 2 1 0 2 2 10 11 5 5 9 7 4 4 3 4 4 2 1 0 0 1 1 2 4 3 3 2 2 1 2 5 10 11 11 13 12 9 10 11 12 12 12
10 3 2 2 1 1 4 6 8 6 2 1 0 0 0 1 1 2 1 1 2 3 4 1 1 0 0 1 1 1 1 1 2 1 0 0 2 2 1 1 3 5 3 1 1 1 1 1 1 3 2 8 9 7 8 6 4 4 4 4 1 1 1 1 0 1 1 3 2 3 4 3 2 2 2 3 5 9 11 12 14 12 10 11 11 12 12 12
8 2 3 4 3 2 5 7 9 7 3 0 1 0 1 1 2 3 2 1 1 2 2 1 1 1 1 1 1 1 0 0 1 1 0 1 2 2 3 2 3 5 4 2 1 1 2 0 2 3 2 1 3 8 7 2 3 5 4 4 4 3 1 1 2 2 2 3 1 3 5 3 2 1 1 3 6 9 11 12 12 10 11 13 13 12 13 13
7 2 3 7 5 3 6 9 10 6 2 1 0 0 1 1 1 3 2 1 1 1 1 1 1 1 1 1 0 1 0 1 1 0 1 1 1 1 2 2 3 3 2 2 1 1 2 1 1 2 2 3 4 8 7 2 1 1 2 5 4 2 1 1 2 3 3 3 1 2 4 3 2 1 2 1 6 8 10 12 13 11 11 12 12 11 11 12
5 1 2 8 7 5 10 10 8 2 1 1 1 0 1 2 3 4 3 1 1 2 1 2 0 0 1 1 1 1 1 1 1 0 0 1 0 1 1 1 2 3 2 4 2 1 0 2 0 2 2 2 5 5 5 5 3 4 5 4 1 1 3 2 2 5 3 2 1 1 1 0 1 2 6 6 6 9 11 12 13 12 10 10 9 8 8 10
3 1 1 9 6 8 10 6 3 1 1 1 1 0 0 3 4 4 5 4 2 2 1 1 1 1 1 1 1 1 0 0 1 0 0 0 1 2 2 2 2 2 1 3 1 1 1 2 1 2 1 2 4 2 3 4 4 4 5 5 3 2 4 4 4 6 4 3 2 2 1 1 2 3 7 8 7 8 12 12 13 12 11 9 8 8 8 8
3 1 1 9 4 8 4 1 1 1 1 0 1 2 1 3 4 3 3 4 4 2 1 1 2 1 1 0 1 2 1 1 1 1 1 1 1 1 1 2 2 2 0 3 1 1 1 1 1 1 0 2 2 0 3 3 1 2 2 5 5 3 4 4 4 4 3 3 3 2 2 0 2 4 6 7 6 7 11 11 10 12 13 11 8 8 8 8
1 1 3 7 1 4 2 0 1 1 1 0 1 3 2 3 4 3 1 1 3 1 1 1 2 1 1 0 0 1 1 2 1 1 2 2 2 2 1 1 2 2 1 2 1 0 1 0 1 1 1 1 1 1 3 4 3 5 2 2 4 3 3 3 3 1 1 3 2 2 2 0 2 6 7 6 5 4 8 9 8 9 12 11 9 8 8 9
1 1 5 4 4 1 3 1 1 1 2 1 1 3 2 2 3 2 2 1 2 1 1 1 2 1 1 0 1 1 1 2 1 2 2 1 2 4 3 3 1 2 1 1 1 1 1 0 0 1 1 2 3 5 4 5 2 6 1 1 2 2 3 2 2 2 4 5 2 2 3 1 3 7 8 6 5 1 4 7 8 7 8 10 11 9 8 8
1 2 3 3 1 2 2 2 1 1 2 1 2 2 2 2 3 3 3 2 1 1 1 2 2 1 1 1 1 1 1 2 2 2 1 1 1 2 2 5 2 2 1 1 1 1 1 0 0 1 2 3 4 4 2 6 4 1 2 4 3 1 4 1 3 2 4 5 3 3 4 1 4 6 8 8 7 6 3 4 6 7 8 10 11 9 8 7
2 1 1 2 1 1 1 1 1 1 1 1 1 3 3 2 3 3 3 3 1 1 1 1 1 1 2 1 2 2 1 0 2 1 1 2 2 2 2 5 3 1 1 1 1 1 0 0 1 2 2 2 3 2 1 4 5 5 5 6 6 1 4 2 3 3 4 3 2 3 3 1 4 7 9 9 8 7 6 3 3 5 7 10 10 9 7 6
2 0 0 2 2 2 1 1 1 1 1 0 1 1 1 2 3 2 4 2 1 1 0 0 1 1 1 1 1 2 3 2 0 1 1 2 1 0 2 4 3 1 2 4 3 1 1 2 2 3 4 3 5 5 3 3 4 5 8 9 8 4 5 5 4 4 4 2 3 2 1 2 4 8 9 9 8 7 6 4 2 3 4 7 8 8 7 6
1 1 1 2 1 1 1 1 2 1 1 1 1 1 1 2 3 2 3 2 0 1 1 1 1 1 1 2 2 1 2 2 2 1 1 2 1 2 2 2 3 4 4 2 2 0 3 3 4 9 11 9 9 8 7 8 7 7 10 11 10 6 5 9 6 2 1 3 4 2 2 3 4 7 7 8 7 6 5 5 3 2 3 5 7 8 8 6
1 1 0 1 1 0 0 1 3 3 1 1 1 1 1 1 2 2 1 0 1 1 1 0 1 0 2 3 2 2 1 1 1 1 1 2 2 1 1 1 1 4 5 2 1 1 2 3 2 7 11 10 9 7 8 8 6 7 9 12 12 9 5 8 4 2 3 4 2 5 6 4 4 5 6 7 7 5 5 5 4 4 4 5 7 9 9 7
1 1 0 1 2 1 2 2 3 3 3 2 2 3 2 1 1 2 1 1 1 1 1 2 1 0 1 3 3 2 2 2 1 1 2 1 1 0 1 0 0 1 2 1 2 1 1 3 4 7 9 9 7 6 8 7 3 6 7 10 13 12 7 3 3 4 5 2 5 9 9 6 5 4 5 6 6 6 5 5 5 5 6 6 6 6 7 6
1 1 1 2 2 2 2 2 2 2 2 1 2 2 2 2 1 1 2 3 2 1 1 4 3 1 1 2 3 3 4 4 2 1 3 2 1 1 1 2 2 1 1 1 1 1 0 3 5 5 5 5 5 5 6 3 2 3 4 9 13 13 9 2 6 7 5 6 9 11 10 7 4 4 6 7 6 8 8 8 8 6 6 6 6 6 6 5
1 0 1 1 1 1 1 1 0 1 1 1 2 1 1 3 1 1 3 4 4 3 3 6 6 3 1 1 2 4 5 5 3 2 3 3 0 0 1 1 3 1 0 0 1 2 1 2 3 3 2 3 5 5 2 3 5 1 5 8 11 11 8 2 5 5 4 8 11 10 8 5 4 5 7 8 9 10 10 10 9 8 8 9 8 7 6 5
2 0 0 1 1 1 1 1 0 1 2 1 1 1 2 1 0 1 3 2 3 4 3 6 8 4 2 2 4 4 5 6 3 1 2 1 2 1 1 0 2 1 1 1 0 1 1 3 2 1 1 3 5 3 3 5 3 1 4 4 6 11 11 3 4 6 4 4 8 6 5 5 6 7 7 9 11 11 9 9 9 9 10 10 10 9 8 7
Wind_Direction
11 8 9 9 8 12 15 14 13 11 11 6 1 356 350 349 348 349 352 355 358 358 357 352 349 349 344 339 334 330 329 328 323 314 278 276 299 245 245 233 185 179 161 158 162 148 132 141 141 140 143 142 138 139 170 179 228 274 4 353 334 329 299 238 206 203 130 144 155 176 203 141 131 126 127 125 107 112 112 91 90 86 92 111 119 131 138 142
11 8 7 6 6 9 11 13 12 8 7 5 3 360 357 357 353 352 352 352 357 357 355 349 346 346 342 342 335 333 333 327 312 286 280 316 311 238 218 180 180 178 161 158 160 147 137 150 154 151 142 141 148 147 176 171 214 242 302 306 310 318 316 319 280 297 120 153 149 160 187 147 135 134 147 138 126 131 116 105 106 101 107 118 127 136 141 145
11 8 5 4 5 5 8 12 12 7 3 2 360 359 359 360 355 352 349 347 347 345 346 343 343 342 340 344 337 338 335 321 308 272 345 359 317 230 180 162 174 177 167 165 164 159 151 152 157 152 138 134 133 146 179 177 215 217 249 279 303 312 295 280 250 313 346 160 143 144 150 135 130 138 154 140 139 153 142 137 137 128 132 138 140 144 147 150
9 6 4 3 3 3 6 9 9 6 2 359 356 357 357 356 354 350 348 343 339 336 336 337 339 337 341 345 339 342 334 302 71 3 349 347 326 189 170 164 167 170 169 168 167 168 152 146 157 151 137 148 128 145 188 190 210 202 230 281 328 325 304 293 229 73 16 163 142 134 134 126 123 134 147 141 143 171 170 159 155 149 147 149 151 151 152 153
7 4 4 3 2 0 3 4 4 3 2 359 354 355 353 351 349 346 344 339 336 332 330 330 333 335 342 347 343 343 333 200 83 338 342 345 334 162 163 162 160 157 159 158 152 155 146 145 157 144 148 168 156 181 194 187 198 226 235 275 304 308 325 356 10 62 59 129 130 131 133 128 131 136 155 154 153 176 172 163 152 151 151 153 154 153 155 156
6 4 3 4 1 358 360 1 360 357 358 360 356 353 347 343 342 340 338 334 331 329 331 328 328 335 346 347 346 349 330 220 356 332 342 353 135 151 155 157 154 148 149 145 132 141 143 152 170 154 161 175 188 211 186 178 198 243 254 256 278 304 338 9 168 81 68 109 116 125 123 125 143 141 156 155 103 130 146 146 142 145 149 150 153 154 156 159
4 3 3 4 1 359 360 358 357 355 355 356 353 349 345 342 339 335 333 330 326 324 327 327 328 338 349 348 344 1 2 312 333 337 354 59 139 144 149 154 157 152 146 142 132 137 147 166 182 156 157 166 192 226 235 200 205 241 274 317 331 328 332 332 176 109 93 98 85 108 121 135 150 141 153 137 95 133 138 136 137 140 147 149 153 158 158 159
2 1 1 2 1 360 359 356 354 352 352 350 347 345 345 345 339 332 326 322 320 319 319 321 328 340 354 359 346 345 39 329 342 2 54 126 141 144 146 148 161 160 151 154 148 142 152 168 173 151 178 187 156 217 221 215 210 228 257 13 13 347 19 128 142 127 116 103 98 122 115 109 118 126 159 149 123 139 137 135 138 140 149 154 157 160 160 161
359 360 360 360 359 358 357 353 350 349 347 345 343 342 341 340 334 327 320 317 316 315 316 317 325 348 5 7 324 309 79 9 24 53 102 141 145 146 149 147 161 164 154 156 157 157 163 171 166 160 219 183 154 305 228 233 233 209 222 125 131 350 54 129 138 141 126 114 137 132 113 102 86 124 163 155 138 139 136 138 142 146 155 160 161 162 163 164
356 357 358 357 356 356 355 351 347 345 342 340 340 336 332 330 325 319 315 314 313 311 312 317 332 0 14 5 298 126 111 40 43 60 111 153 151 152 158 155 162 164 147 143 159 164 168 178 166 148 323 124 309 312 247 234 320 132 148 119 98 354 24 144 145 143 124 104 152 145 124 112 111 192 176 153 147 142 139 142 146 152 159 163 164 163 166 167
353 353 354 354 354 355 354 350 345 342 339 336 333 327 323 321 315 309 309 309 305 309 313 316 348 32 32 17 304 95 142 134 44 49 109 158 165 165 169 164 167 167 149 138 163 171 168 174 178 192 281 334 297 314 137 176 94 123 142 121 38 5 36 145 146 152 138 90 234 142 120 100 148 216 173 150 153 148 144 147 152 157 159 165 166 164 168 171
350 350 350 350 352 353 352 349 344 339 335 330 327 322 317 313 308 305 307 304 299 312 323 316 6 65 37 354 225 229 200 197 12 32 103 152 179 178 178 169 174 180 168 160 176 185 177 134 201 220 188 343 290 309 64 94 118 127 138 153 37 6 24 147 146 167 170 149 235 149 132 168 187 186 142 151 156 151 148 151 157 159 157 165 168 166 172 174
349 347 346 347 351 352 351 348 342 336 331 329 327 321 316 311 306 308 308 299 306 345 347 346 50 60 15 273 231 241 249 249 292 339 109 155 178 177 179 170 177 195 189 176 172 191 201 181 1 285 51 338 346 50 100 101 125 125 88 205 144 351 208 177 151 174 172 163 278 216 170 194 190 169 141 157 158 152 152 157 160 161 159 164 171 171 174 177
348 344 344 346 349 350 349 345 338 334 331 332 330 325 322 316 312 317 309 275 293 94 90 62 73 81 308 269 264 212 235 264 279 282 219 175 161 154 167 165 173 195 193 176 141 161 215 212 321 334 285 340 46 118 139 112 122 137 110 171 182 260 188 138 250 186 171 162 291 264 204 190 182 168 153 163 162 158 159 161 163 164 161 165 175 177 176 182
347 344 343 345 348 348 346 342 337 336 336 334 332 329 328 330 340 3 90 142 137 123 104 70 58 61 280 280 275 280 272 272 283 289 247 190 163 145 164 169 169 187 192 191 168 50 162 183 195 283 191 90 157 182 181 136 110 134 175 184 201 261 202 202 241 212 199 156 204 247 214 177 174 161 159 168 169 165 163 164 164 165 165 167 176 182 182 186
348 345 343 344 346 346 344 341 339 340 340 337 335 337 346 5 29 65 119 128 123 109 103 75 46 23 283 42 8 301 290 273 296 317 248 195 179 143 142 148 138 151 165 191 210 112 123 159 160 313 184 157 187 202 210 192 177 185 243 253 235 248 237 204 173 268 258 161 170 253 168 131 160 153 164 172 173 170 165 165 167 166 167 169 177 186 186 186
350 347 344 344 344 343 343 342 342 346 343 340 343 356 21 30 45 88 120 121 110 114 117 111 39 359 276 329 341 321 305 288 302 309 193 180 177 142 129 120 104 118 111 80 151 179 147 157 164 145 203 214 191 208 220 227 247 210 216 255 263 250 243 204 130 230 241 174 180 235 99 63 113 153 170 175 174 173 170 169 168 167 169 172 179 188 187 187
351 348 345 344 343 342 342 343 345 349 346 344 354 25 45 48 68 85 110 108 100 134 134 126 197 298 231 229 332 315 300 292 294 292 156 154 155 137 121 112 113 115 109 93 93 150 168 159 177 172 197 202 184 207 216 275 301 230 206 239 246 241 230 221 150 166 188 177 178 188 156 352 90 160 175 178 176 176 175 172 169 168 171 174 181 190 191 193
351 348 346 345 343 341 343 343 346 351 348 350 4 59 63 56 82 90 116 119 97 160 82 151 210 300 300 259 283 301 302 293 274 178 140 144 147 121 100 110 120 121 134 147 139 183 181 143 172 201 203 200 196 211 218 24 10 32 158 206 249 255 209 192 15 156 173 157 154 184 194 153 161 172 177 178 178 178 173 169 170 170 172 179 185 191 194 199
351 348 346 344 342 342 342 340 345 349 351 2 9 76 65 24 55 74 130 175 222 270 312 201 182 269 288 288 300 317 322 295 90 138 147 151 150 129 93 95 115 136 151 159 163 181 205 184 195 209 203 211 218 221 227 18 28 28 337 329 348 274 105 84 357 171 172 163 143 186 189 161 173 180 179 178 178 178 173 170 173 175 176 182 188 191 196 204
350 347 345 344 342 343 341 337 342 347 357 20 18 41 78 359 354 347 327 276 232 230 258 241 195 265 274 278 293 341 10 202 62 106 151 150 153 149 99 48 149 146 113 151 141 111 217 206 200 208 221 246 244 227 233 247 277 310 318 339 6 323 86 61 355 177 187 203 165 139 156 161 165 174 175 177 183 186 181 177 178 179 180 184 190 194 198 203
348 346 343 342 342 343 339 334 338 346 20 31 33 88 132 345 311 287 289 301 278 221 242 260 266 271 270 269 261 228 80 321 62 100 152 147 159 184 128 178 176 132 88 137 150 148 201 213 256 311 219 221 226 206 222 241 261 286 309 332 341 325 139 88 31 357 294 244 177 134 134 137 128 164 177 181 191 194 188 186 184 182 183 184 190 196 198 197
347 344 342 341 342 342 336 333 338 353 52 14 43 125 97 356 277 223 197 291 294 247 205 235 243 252 269 279 215 176 153 219 102 140 170 163 157 185 159 159 137 118 137 175 181 183 190 166 96 181 183 186 204 181 201 235 248 256 270 299 319 182 224 270 88 5 321 328 143 124 102 70 84 160 189 188 191 186 187 194 190 189 189 188 192 197 200 197
346 343 340 339 342 342 333 330 335 351 350 343 84 143 41 355 297 199 184 278 293 282 234 224 239 231 259 332 160 168 159 181 190 161 173 170 129 146 170 136 136 153 160 165 167 185 206 146 124 135 161 200 230 157 190 240 246 233 244 283 290 225 231 324 95 111 332 354 108 115 83 304 199 189 196 187 186 180 184 196 196 198 198 192 192 199 203 200
345 342 339 338 342 342 331 325 288 335 340 335 162 150 357 348 328 182 185 299 258 289 256 200 238 215 191 92 142 180 313 185 236 202 170 170 142 139 153 124 196 186 146 139 151 192 257 160 146 151 163 180 221 227 216 240 267 252 165 253 270 241 171 119 126 147 210 279 209 152 181 244 187 202 205 187 193 199 186 197 202 200 197 193 195 201 205 204
344 341 337 337 341 341 333 312 193 333 340 317 161 164 331 338 340 169 179 343 145 341 329 190 223 177 159 119 142 198 260 127 288 236 181 178 153 129 155 150 302 199 151 148 172 229 244 141 158 178 191 189 230 261 211 202 263 275 111 239 256 211 144 144 157 165 175 236 214 186 208 235 188 212 212 195 201 205 196 202 206 200 196 197 200 201 202 203
343 339 335 335 339 340 335 239 282 319 338 164 174 315 327 334 147 163 204 346 110 25 314 290 355 85 199 182 167 194 233 24 57 112 186 190 161 52 197 173 195 178 153 159 193 209 183 170 168 188 201 206 233 254 200 194 251 290 99 156 201 158 143 152 160 165 116 71 191 196 211 251 239 221 207 199 206 210 209 209 207 200 198 200 203 202 200 201
341 337 332 333 337 333 311 275 280 281 193 142 295 328 332 359 148 165 263 41 59 338 255 320 336 191 330 123 181 226 351 348 14 85 23 190 164 28 239 200 202 170 152 208 213 151 178 195 192 191 194 218 236 248 188 179 233 1 105 118 135 138 145 153 160 165 127 47 211 199 196 230 247 215 187 197 207 213 214 212 208 202 200 201 203 203 202 199
340 335 328 331 333 325 307 276 254 234 176 116 350 338 357 137 147 173 306 103 13 312 219 327 270 224 342 90 153 346 336 311 346 27 48 146 147 19 234 195 173 158 145 249 239 197 215 221 204 197 206 229 234 214 175 175 148 116 120 111 113 124 133 149 166 152 135 239 242 196 183 211 256 188 175 195 209 213 213 212 211 204 201 202 202 203 201 195
338 331 324 325 323 317 311 286 254 218 182 22 351 358 127 138 157 295 74 52 337 317 241 291 308 323 212 207 255 12 247 245 15 51 113 138 90 48 18 155 125 163 151 322 255 244 256 58 151 206 217 221 174 89 170 168 136 135 131 113 110 117 120 136 148 151 188 239 265 198 187 204 266 196 184 193 200 205 206 206 209 207 203 203 201 201 198 192
337 327 317 315 308 289 296 301 221 170 156 353 1 106 143 126 348 99 53 14 296 303 336 318 332 353 178 228 273 44 215 265 41 142 175 187 158 101 173 204 130 157 179 210 241 257 270 202 182 224 212 161 111 85 117 146 142 150 146 131 133 125 139 169 147 181 243 239 5 186 184 201 241 220 193 193 187 194 199 197 200 204 205 201 200 199 195 192
335 323 309 299 288 262 235 221 185 200 330 344 17 117 172 270 90 43 352 353 307 323 9 335 324 320 183 195 257 350 357 325 39 113 168 203 204 181 212 222 193 216 227 210 222 287 261 213 178 249 172 163 145 103 103 145 157 178 165 150 187 236 207 232 195 215 255 249 51 143 164 199 246 247 213 202 196 197 200 196 194 198 201 197 194 195 190 189
335 321 306 287 275 262 248 246 263 286 313 344 20 95 137 102 87 329 291 320 337 9 339 282 309 307 239 179 196 264 252 334 7 31 76 338 244 209 215 187 188 232 262 196 281 308 264 166 132 150 163 181 181 152 149 169 181 195 178 167 205 221 219 241 219 255 269 236 144 166 169 214 261 256 220 210 207 203 199 200 198 194 197 193 189 189 184 182
337 323 308 287 271 264 256 250 256 269 307 49 352 170 128 94 98 191 254 273 280 301 290 275 306 289 204 183 301 247 218 57 27 19 58 351 263 222 199 168 185 214 182 192 259 316 272 102 149 182 155 177 194 196 179 168 177 193 177 172 213 214 233 268 219 250 303 118 152 161 177 229 244 170 218 222 216 205 196 198 203 200 196 189 183 182 179 180
340 329 318 295 276 262 245 235 235 234 161 83 62 127 136 158 206 229 251 272 280 294 294 248 238 215 155 298 305 222 253 9 42 347 44 41 259 243 247 193 194 204 187 191 185 175 262 332 257 271 176 179 193 192 161 159 165 184 161 175 229 218 213 303 348 270 327 293 193 177 211 258 238 192 193 209 208 199 189 190 202 207 195 181 179 179 180 183
350 352 10 34 64 139 204 208 202 189 146 102 269 73 131 218 212 193 193 300 309 312 310 320 118 206 304 274 214 106 337 19 35 300 151 356 266 245 275 260 189 199 206 212 181 184 264 47 359 319 183 190 197 160 160 180 157 150 178 189 178 67 144 204 188 113 273 266 213 188 240 269 260 246 177 165 178 179 180 186 197 201 183 179 183 181 183 184
4 53 54 43 45 145 175 178 170 159 123 90 209 119 263 248 196 191 199 300 301 314 308 327 51 327 270 260 244 90 62 78 33 279 175 311 262 207 270 268 183 199 217 256 251 222 268 352 31 353 46 187 206 155 153 213 165 158 189 169 109 62 46 295 242 205 227 260 215 200 250 280 270 264 98 161 178 173 179 184 188 185 175 184 190 183 185 185
1 86 66 22 2 179 166 158 153 145 102 65 270 269 261 247 192 210 227 270 263 176 210 221 27 326 226 250 245 87 329 223 102 93 164 336 289 170 296 278 196 219 206 185 209 191 252 264 60 10 37 96 161 160 147 152 182 96 126 142 133 166 155 38 275 238 228 259 261 210 246 275 250 284 9 251 205 187 183 182 184 181 178 188 189 179 180 181
3 98 70 4 348 169 154 148 145 120 55 74 331 42 244 259 242 224 218 228 200 166 213 243 219 247 218 242 183 110 300 216 121 57 206 9 357 181 296 290 227 271 211 176 188 116 255 280 90 56 34 111 163 179 176 168 135 80 111 137 97 121 132 108 272 273 272 268 292 263 247 199 182 321 324 294 243 202 186 184 189 186 183 186 178 168 174 175
12 61 90 357 352 156 147 142 138 37 69 95 296 186 253 274 264 232 212 220 212 183 233 224 178 255 233 227 244 172 31 119 139 138 173 352 258 196 232 256 255 301 254 178 188 133 200 288 340 55 51 185 182 189 206 187 156 139 152 167 172 138 135 151 234 268 276 274 288 297 288 96 78 338 309 297 272 217 195 191 190 188 188 185 171 166 172 175
353 93 71 353 6 156 149 69 83 44 118 143 250 221 256 283 282 273 219 218 225 221 295 197 188 253 203 145 259 192 132 87 133 166 168 200 224 188 262 251 252 307 175 154 140 169 206 273 289 11 83 205 207 253 284 289 110 129 184 186 178 158 144 171 227 241 245 266 278 293 302 348 43 347 322 310 292 236 206 198 192 188 189 187 178 172 170 176
338 98 348 346 104 161 326 325 106 20 210 210 276 233 276 292 278 294 329 212 224 207 70 171 223 224 181 175 214 190 163 127 131 213 183 195 214 206 267 258 226 274 229 149 129 239 177 153 259 304 24 2 354 42 327 323 124 143 216 203 165 154 155 190 228 236 303 297 278 289 290 199 34 355 345 335 315 254 208 200 194 187 186 185 182 177 175 182
30 340 340 6 142 178 338 163 147 326 206 310 334 233 252 284 274 300 345 295 236 182 114 182 241 219 171 279 173 196 237 158 173 242 205 249 229 213 271 299 184 198 230 146 160 188 181 153 356 309 115 101 103 104 49 3 123 159 164 73 153 165 146 196 257 339 322 293 279 287 270 139 41 5 1 4 4 13 187 190 188 183 180 182 181 179 182 185
334 273 329 7 171 270 316 183 187 208 208 314 323 270 268 232 249 280 294 290 266 142 144 183 234 185 122 32 112 124 281 193 203 241 187 230 222 161 306 295 226 169 197 190 181 192 206 219 11 255 181 129 122 133 75 11 5 351 4 4 334 35 115 160 294 322 288 275 265 276 269 78 31 10 17 24 38 57 82 162 185 185 182 186 185 176 174 177
311 231 263 337 324 304 289 197 147 168 212 311 295 307 311 247 237 242 252 275 242 166 182 192 205 140 111 82 109 95 359 238 209 214 164 221 246 83 345 293 281 167 144 98 21 334 31 290 260 230 206 154 123 121 24 345 324 316 338 346 335 314 169 215 271 227 241 251 187 252 271 88 33 15 25 28 36 48 57 89 162 186 185 188 185 169 162 167
341 354 292 341 31 59 52 14 6 189 167 142 257 299 302 277 291 239 210 228 189 164 292 53 137 108 101 90 96 69 26 9 91 122 161 239 267 57 285 296 326 9 103 96 73 60 97 37 19 78 95 106 104 89 49 6 329 332 347 345 337 307 214 216 241 229 238 240 198 235 303 107 45 17 22 26 30 40 46 59 115 163 171 179 175 156 145 150
3 336 351 352 3 49 75 78 19 13 136 171 261 270 240 273 321 314 204 197 115 169 308 17 70 162 189 159 128 90 24 4 18 35 327 303 288 251 273 312 358 338 333 66 72 91 121 86 64 85 95 109 112 98 69 46 23 1 1 353 340 325 218 207 225 217 190 249 234 162 128 130 54 22 17 22 26 34 39 45 80 124 134 149 149 137 134 136
356 349 59 342 291 205 103 3 1 344 259 224 232 247 258 279 334 319 267 15 16 248 224 206 96 91 209 175 144 136 124 31 28 358 293 300 292 275 351 28 27 340 326 340 39 27 115 111 114 106 110 122 115 95 81 59 9 339 3 2 346 331 254 209 214 196 199 246 224 129 132 119 59 25 17 24 24 28 36 44 66 97 112 114 121 126 129 129
2 17 90 332 293 247 277 311 331 307 262 241 227 226 233 241 282 288 273 310 324 308 254 215 224 290 178 158 134 141 185 181 147 242 235 228 290 262 81 354 186 44 337 329 57 52 90 96 129 127 118 122 113 91 89 76 352 317 353 358 348 333 292 219 121 145 182 163 125 128 120 93 63 32 29 33 34 43 51 58 66 81 95 94 97 104 105 104
2 7 354 335 295 261 270 294 300 288 272 229 224 224 216 224 252 321 270 243 243 262 217 190 183 152 155 167 156 162 189 195 158 144 196 192 227 203 175 246 232 97 355 318 46 7 7 117 152 151 113 114 121 97 82 74 273 285 355 358 352 335 295 233 109 123 143 130 132 131 115 89 65 57 57 52 52 56 57 59 59 63 79 88 86 72 64 64
356 329 339 323 298 283 274 270 302 293 276 210 202 208 212 213 208 334 273 239 224 240 218 175 158 130 79 118 150 156 177 189 170 148 179 182 357 304 188 246 234 207 93 259 3 6 56 130 176 179 121 141 141 116 92 243 226 175 30 6 352 330 292 223 105 98 130 151 148 130 110 97 83 81 77 66 62 55 47 50 55 56 65 76 80 73 58 49
7 304 304 289 290 336 330 321 91 224 249 244 206 239 270 258 183 288 286 247 223 257 248 172 157 135 96 142 166 184 194 193 186 133 169 146 30 44 133 220 241 255 227 179 164 22 108 148 170 188 162 139 122 128 216 236 225 90 37 20 354 326 309 311 72 49 39 148 153 128 107 101 88 82 77 69 66 57 43 43 51 55 61 65 67 70 66 61